Погода в Таре

Погода в Таре : погода сейчас, прогноз погоды и архив. Всё, что Вы хотите узнать о погоде в Таре!

Хотите узнать прогноз погоды в Таре? Тогда Вам сюда: Погода в Таре

Поиск расширенной информации на нашем сайте:

Полезная информация: провода для активного сабвуфера

Другие новости

Новости СМИ2

Главная страница сайта

Новости сайта

03.07.2017

Напоминаем, что на нашем специализированном сайте Метеоцентр.Азия вы можете получить высокодетализированные автоматические прогнозы погоды по пунктам России, СНГ и мира в авиационном формате (включающие направление и скорость ветра, видимость, явления погоды, количество и форму облачности, нижнюю и верхнюю границу облачности).

Рекомендуем: планировка таунхаусов

Погода в Таре - сегодня

Время (UTC), дата Ветер
(°,м/с) 
Видим.   Явления Облачность Т
(°С)
Тd
(°С)
f(%) Тe
(°С)
Pmin
(гПа)
dP
(гПа)
Po
(мм)
O2
(г/м3)
Тmin Tmax R s Состояние
почвы
09 09.12.17 090 (В) 20000 м    10/0 средняя, верхняя 
[Ac trans|Cs]
-10.9 -14.4 75 -14  1019  -1.2  757  319           
12 09.12.17 110 (В) 10 км    9/0 средняя, верхняя 
[Ac trans|Ci sp]
-10.3 -13.6 77 -13  1016.8  -2.1  755  318           
15 09.12.17 110 (В) 10 км    9/0 средняя 
[Ac As]
-10 -13.1 78 -13  1015.4  -1.4  754  317    -10       
18 09.12.17 140 (ЮВ) 4000 м  слаб. снег  10/0 средняя 
[As op]
-9.3 -11.7 83 -12  1014.7  -0.7  754  316           
21 09.12.17 150 (ЮВ) 4000 м  слаб. снег  10/0 средняя 
[As op]
-8.4 -10.8 83 -12  1014.5  -0.2  754  314           
00 10.12.17 160 (Ю) 10 км  {снег}  10/0 средняя 
[As trans]
-6.8 -9 84 -9  1015.4  0.9  754  313           
03 10.12.17 150 (ЮВ) 20000 м    ясно 
-8.3 -9.7 90 -10  1017  1.5  756  315  -10    18  равномерный
сухой снег
100% 
06 10.12.17 150 (ЮВ) 20000 м    6/0 средняя, верхняя 
[Ac As|Cs]
-8 -9.5 89 -10  1018.1  1.1  756  315           
09 10.12.17 090 (В) 20000 м    10/0 средняя 
[As op]
-6.5 -8.1 88 -8  1017.3  -0.7  756  313           
12 10.12.17 070 (В) 4000 м  слаб. снег  10/4 300 м средняя 
[Frnb|As op]
-5.7 -7.2 89 -7  1017.1  -0.2  756  312           
15 10.12.17 040 (СВ) 10 км  {снег}  10/0 средняя 
[As trans]
-5.2 -7.2 86 -7  1015.3  -1.8  754  311    -5.2  0.8     
18 10.12.17 060 (СВ) 4000 м  слаб. снег  10/0 средняя 
[As op]
-5.1 -6.8 88 -6  1015.2  -0.1  754  310           
21 10.12.17 140 (ЮВ) 4000 м  слаб. снег  10/0 средняя 
[As op]
-4.8 -7.1 84 -6  1016.1  0.8  755  310           
00 11.12.17 140 (ЮВ) 4000 м  слаб. снег  10/0 средняя 
[As op]
-6.7 -9.3 82 -10  1017.8  1.6  756  313           
03 11.12.17 090 (В) 20000 м  {снег}  8/0 средняя 
[Ac trans]
-9.2 -11.4 84 -9  1019.8  1.9  758  317  -9.2    19  равномерный
сухой снег
100% 
06 11.12.17 080 (В) 20000 м  {снег}  10/0 средняя, верхняя 
[Ac trans|Ci sp]
-9.7 -11.9 84 -10  1022.2  2.4  759  318  -11.2         
09 11.12.17 080 (В) 20000 м  {снег}  10/0 верхняя 
[Cs]
-8.8 -12.5 75 -9  1023.3  1.1  760  318           
12 11.12.17 060 (СВ) 10 км  {снег}  3/0 верхняя 
[Ci sp]
-12.8 -14.6 86 -13  1025.6  2.1  762  323           
15 11.12.17 030 (СВ) 10 км    ясно 
-14.9 -17.1 83 -15  1027.7  2.1  763  327    -8.6  0.0     
18 11.12.17 330 (СЗ) 4000 м  слаб. снег  10/0 средняя 
[As op]
-13.3 -15.6 83 -15  1029.3  1.6  765  325           
21 11.12.17 010 (С) 4000 м  слаб. снег  10/0 средняя 
[As op]
-12.9 -15.1 84 -15  1031.2  1.8  766  325           
00 12.12.17 010 (С) 4000 м  слаб. снег  10/0 средняя 
[As trans]
-13 -15.3 83 -13  1031.9  0.8  767  326           
03 12.12.17 тихо ()   10 км  слаб. снег  10/0 средняя 
[As trans]
-16.8 -19.4 80 -17  1034.5  2.4  768  331  -17.9    0.2  20  равномерный
сухой снег
100% 
06 12.12.17 тихо ()   20000 м  {снег}  8/0 верхняя 
[Ci fib]
-12.8 -15 84 -13  1035.9  1.5  770  327           
09 12.12.17 250 (З) 20000 м    8/0 верхняя 
[Ci fib]
-11.7 -14.5 80 -12  1036  0.2  770  325           
Время (UTC), дата Ветер
(°,м/с) 
Видим.   Явления Облачность Т
(°С)
Тd
(°С)
f(%) Тe
(°С)
Pmin
(гПа)
dP
(гПа)
Po
(мм)
O2
(г/м3)
Тmin Tmax R s Состояние
почвы

Для получения пояснительной информации подведите курсор к названию столбца.

ПОГОДА в Таре - архив

Всё, что Вы хотите узнать о погоде в Таре - удобно и подробно!

Выберите нужную дату (начиная с 1 января 2015* года) и нажмите кнопку "Найти".
Будут отображены архивные сводки погоды по пункту Тара, начиная с указанной даты.


Отображать данные в формате CSV (для использования в таблицах Excel)


Внимание! Наш архив погоды предназначен исключительно для личного некоммерческого использования в познавательных целях. Если Вам необходимы официальные справки о состоянии погоды (для производственных, юридических, коммерческих и т.п. целей), обращайтесь в органы Росгидромета.

*Примечание: данная дата относится к архиву по метеостанциям СССР (Россия, СНГ, Балтия).
Архив по метеостанциям Зарубежной Европы и Азии (кроме Китая) хранится 10 дней, по другим регионам земного шара (Китай, Африка, Америка, Австралия, Океания) - 1 день.

Тара - район местоположения метеостанции


Название, широта, долгота, высота метеостанции:
Тара 56.9°ш. 74.4°д. 73 м над ур. моря [Российская Федерация]

Дополнительная информация

В oтличие oт бoльшинства пoгoдных сайтoв мы публикуем пoдрoбную метеoинфoрмацию в детальнoм прoфессиoнальнoм фoрмате.

Характеристики температуры и влажнoсти вoздуха измеряются на высoте 2 м в тени вдали oт зданий и деревьев.
Скoрoсть ветра измеряется на высoте 10 м (на урoвне рoста челoвека скoрoсть ветра ниже в 1.5-2 раза). Если метеoстанция нахoдится в гoрoде или в лесу, тo скoрoсть ветра занижена на 2-4 м/с пo сравнению с oткрытым местoм. Скoрoсть ветра над акватoриями крупных рек и oзёр, а также на вершинах хoлмoв на 2-5 м/с выше, чем в oбычных услoвиях.
Атмoсфернoе давление в разных тoчках местнoсти мoжет значительнo oтличаться oт давления на метеoстанции, в зависимoсти oт услoвий рельефа (при пoдъёме на 10 м давление пoнижается примернo на 1 мм рт.ст.).